When you browse on this site, cookies collect data to enhance your experience and personalize the content and advertising you see.
Visit our Privacy Policy to learn more. By continuing to use the site, you agree to this use of cookies and data.
  • En España
  • Lista de países
  • Para 7 días
  • Temperatura del agua
  • Mapa Satelital
  • El tiempo en el mapa
  • Informadores
  • user-avatar
    Iniciar sesión

    Tiempo cada hora Dangriga

    Hoy, 21 Noviembre, Miércoles

    Tiempo Temperatura Precipitaciones Viento Presión Humedad
    00:00 +25°C° 0 mm 3 mps 762 mmHg 98%
    01:00 +25°C° 0.7 mm 3 mps 762 mmHg 98%
    02:00 +25°C° 0.7 mm 3 mps 762 mmHg 98%
    03:00 +25°C° 0.7 mm 3 mps 761 mmHg 98%
    04:00 +25°C° 0.7 mm 3 mps 762 mmHg 98%
    05:00 +25°C° 0.7 mm 3 mps 762 mmHg 98%
    06:00 +25°C° 0.7 mm 3 mps 762 mmHg 98%
    07:00 +26°C° 1 mm 3 mps 763 mmHg 95%
    08:00 +27°C° 1 mm 3 mps 763 mmHg 92%
    09:00 +28°C° 1 mm 3 mps 763 mmHg 89%
    10:00 +29°C° 0.9 mm 3 mps 763 mmHg 85%
    11:00 +30°C° 0.9 mm 3 mps 763 mmHg 81%
    12:00 +30°C° 0.9 mm 3 mps 763 mmHg 77%
    13:00 +30°C° 0.5 mm 4 mps 762 mmHg 78%
    14:00 +30°C° 0.5 mm 4 mps 762 mmHg 79%
    15:00 +30°C° 0.5 mm 4 mps 761 mmHg 80%
    16:00 +29°C° 0.5 mm 4 mps 761 mmHg 85%
    17:00 +27°C° 0.5 mm 4 mps 761 mmHg 90%
    18:00 +26°C° 0.5 mm 4 mps 762 mmHg 95%
    19:00 +26°C° 0.6 mm 4 mps 762 mmHg 96%
    20:00 +26°C° 0.6 mm 4 mps 763 mmHg 97%
    21:00 +26°C° 0.6 mm 4 mps 763 mmHg 98%
    22:00 +25°C° 1.1 mm 4 mps 763 mmHg 98%
    23:00 +25°C° 1.1 mm 4 mps 763 mmHg 98%

    Mañana, 22 Noviembre, Jueves

    Tiempo Temperatura Precipitaciones Viento Presión Humedad
    00:00 +25°C° 1.1 mm 3 mps 763 mmHg 98%
    01:00 +25°C° 0.9 mm 3 mps 762 mmHg 98%
    02:00 +25°C° 0.9 mm 3 mps 762 mmHg 98%
    03:00 +24°C° 0.9 mm 3 mps 762 mmHg 98%
    04:00 +24°C° 0.9 mm 2 mps 762 mmHg 99%
    05:00 +24°C° 0.9 mm 2 mps 762 mmHg 99%
    06:00 +24°C° 0.9 mm 2 mps 762 mmHg 99%
    07:00 +26°C° 0.7 mm 2 mps 762 mmHg 95%
    08:00 +27°C° 0.7 mm 2 mps 763 mmHg 91%
    09:00 +28°C° 0.7 mm 2 mps 763 mmHg 87%
    10:00 +29°C° 0.4 mm 2 mps 763 mmHg 83%
    11:00 +30°C° 0.4 mm 3 mps 762 mmHg 79%
    12:00 +31°C° 0.4 mm 3 mps 762 mmHg 75%
    13:00 +31°C° 0.9 mm 3 mps 761 mmHg 76%
    14:00 +30°C° 0.9 mm 3 mps 760 mmHg 77%
    15:00 +30°C° 0.9 mm 4 mps 760 mmHg 77%
    16:00 +29°C° 0.3 mm 4 mps 760 mmHg 82%
    17:00 +28°C° 0.3 mm 4 mps 761 mmHg 88%
    18:00 +26°C° 0.3 mm 4 mps 761 mmHg 93%
    19:00 +26°C° 0.8 mm 4 mps 761 mmHg 94%
    20:00 +25°C° 0.8 mm 4 mps 762 mmHg 96%
    21:00 +25°C° 0.8 mm 4 mps 762 mmHg 98%
    22:00 +25°C° 0.7 mm 3 mps 762 mmHg 98%
    23:00 +25°C° 0.7 mm 3 mps 762 mmHg 98%

    Pasado mañana, 23 Noviembre, Viernes

    Tiempo Temperatura Precipitaciones Viento Presión Humedad
    00:00 +25°C° 0.7 mm 2 mps 762 mmHg 98%
    01:00 +25°C° 0.4 mm 2 mps 761 mmHg 98%
    02:00 +25°C° 0.4 mm 2 mps 761 mmHg 98%
    03:00 +25°C° 0.4 mm 1 mps 760 mmHg 98%
    04:00 +24°C° 0.1 mm 2 mps 760 mmHg 98%
    05:00 +24°C° 0.1 mm 2 mps 761 mmHg 98%
    06:00 +24°C° 0.1 mm 2 mps 761 mmHg 98%
    07:00 +26°C° 0.1 mm 2 mps 761 mmHg 93%
    08:00 +27°C° 0.1 mm 2 mps 762 mmHg 88%
    09:00 +28°C° 0.1 mm 3 mps 762 mmHg 83%
    10:00 +30°C° 0.1 mm 3 mps 761 mmHg 74%
    11:00 +31°C° 0.1 mm 3 mps 761 mmHg 66%
    12:00 +34°C° 0.1 mm 3 mps 760 mmHg 58%
    13:00 +33°C° 0.3 mm 3 mps 760 mmHg 64%
    14:00 +31°C° 0.3 mm 3 mps 759 mmHg 71%
    15:00 +30°C° 0.3 mm 3 mps 758 mmHg 77%
    16:00 +29°C° 0 mm 3 mps 758 mmHg 82%
    17:00 +27°C° 0 mm 3 mps 758 mmHg 87%
    18:00 +26°C° 0 mm 2 mps 759 mmHg 92%
    19:00 +26°C° 0.1 mm 2 mps 759 mmHg 93%
    20:00 +25°C° 0.1 mm 3 mps 760 mmHg 94%
    21:00 +25°C° 0.1 mm 3 mps 760 mmHg 95%
    22:00 +25°C° 0.1 mm 2 mps 760 mmHg 95%
    23:00 +25°C° 0.1 mm 2 mps 760 mmHg 96%

    24 Noviembre, Sábado

    Tiempo Temperatura Precipitaciones Viento Presión Humedad
    00:00 +25°C° 0.1 mm 2 mps 759 mmHg 96%
    01:00 +25°C° 0.1 mm 2 mps 759 mmHg 97%
    02:00 +25°C° 0.1 mm 2 mps 759 mmHg 97%
    03:00 +25°C° 0.1 mm 1 mps 758 mmHg 98%
    04:00 +25°C° 0 mm 1 mps 758 mmHg 98%
    05:00 +25°C° 0 mm 1 mps 759 mmHg 98%
    06:00 +25°C° 0 mm 1 mps 759 mmHg 98%
    07:00 +27°C° 0.1 mm 1 mps 759 mmHg 89%
    08:00 +29°C° 0.1 mm 1 mps 760 mmHg 81%
    09:00 +31°C° 0.1 mm 1 mps 760 mmHg 72%
    10:00 +32°C° 0.1 mm 1 mps 760 mmHg 67%
    11:00 +32°C° 0.1 mm 2 mps 759 mmHg 62%
    12:00 +34°C° 0.1 mm 2 mps 759 mmHg 58%
    13:00 +34°C° 0 mm 2 mps 758 mmHg 60%
    14:00 +34°C° 0 mm 2 mps 757 mmHg 61%
    15:00 +32°C° 0 mm 2 mps 757 mmHg 63%
    16:00 +30°C° 0 mm 2 mps 757 mmHg 73%
    17:00 +28°C° 0 mm 3 mps 757 mmHg 82%
    18:00 +26°C° 0 mm 3 mps 758 mmHg 92%
    19:00 +26°C° 0 mm 3 mps 758 mmHg 93%
    20:00 +26°C° 0 mm 3 mps 759 mmHg 95%
    21:00 +25°C° 0 mm 3 mps 759 mmHg 96%
    22:00 +25°C° 0 mm 3 mps 759 mmHg 97%
    23:00 +25°C° 0 mm 3 mps 759 mmHg 97%

    25 Noviembre, Domingo

    Tiempo Temperatura Precipitaciones Viento Presión Humedad
    00:00 +25°C° 0 mm 3 mps 759 mmHg 97%
    01:00 +25°C° 0 mm 3 mps 758 mmHg 98%
    02:00 +25°C° 0 mm 3 mps 758 mmHg 98%
    03:00 +25°C° 0 mm 3 mps 758 mmHg 98%
    04:00 +25°C° 0 mm 3 mps 758 mmHg 98%
    05:00 +24°C° 0 mm 3 mps 758 mmHg 98%
    06:00 +24°C° 0 mm 3 mps 758 mmHg 98%
    07:00 +26°C° 0 mm 3 mps 759 mmHg 89%
    08:00 +28°C° 0 mm 3 mps 759 mmHg 81%
    09:00 +30°C° 0 mm 3 mps 760 mmHg 72%
    10:00 +33°C° 0 mm 3 mps 759 mmHg 67%
    11:00 +34°C° 0 mm 2 mps 759 mmHg 62%
    12:00 +35°C° 0 mm 2 mps 758 mmHg 57%
    13:00 +34°C° 0 mm 2 mps 758 mmHg 59%
    14:00 +34°C° 0 mm 3 mps 757 mmHg 61%
    15:00 +34°C° 0 mm 3 mps 757 mmHg 62%
    16:00 +31°C° 0 mm 3 mps 757 mmHg 72%
    17:00 +29°C° 0 mm 4 mps 758 mmHg 82%
    18:00 +27°C° 0 mm 4 mps 758 mmHg 92%
    19:00 +27°C° 0 mm 4 mps 759 mmHg 93%
    20:00 +27°C° 0 mm 4 mps 759 mmHg 93%
    21:00 +27°C° 0 mm 4 mps 760 mmHg 94%
    22:00 +27°C° 0.1 mm 4 mps 760 mmHg 95%
    23:00 +27°C° 0.1 mm 4 mps 760 mmHg 95%

    26 Noviembre, Lunes

    Tiempo Temperatura Precipitaciones Viento Presión Humedad
    00:00 +27°C° 0.1 mm 4 mps 759 mmHg 96%
    01:00 +27°C° 0.1 mm 4 mps 759 mmHg 96%
    02:00 +26°C° 0.1 mm 4 mps 759 mmHg 97%
    03:00 +26°C° 0.1 mm 4 mps 759 mmHg 98%
    04:00 +26°C° 0.2 mm 4 mps 759 mmHg 98%
    05:00 +26°C° 0.2 mm 3 mps 760 mmHg 98%
    06:00 +26°C° 0.2 mm 3 mps 760 mmHg 98%
    07:00 +27°C° 0.4 mm 3 mps 761 mmHg 95%
    08:00 +28°C° 0.4 mm 4 mps 761 mmHg 92%
    09:00 +29°C° 0.4 mm 4 mps 762 mmHg 89%
    10:00 +30°C° 0.4 mm 4 mps 761 mmHg 84%
    11:00 +32°C° 0.4 mm 4 mps 761 mmHg 79%
    12:00 +31°C° 0.4 mm 3 mps 760 mmHg 74%
    13:00 +32°C° 0.2 mm 4 mps 760 mmHg 73%
    14:00 +32°C° 0.2 mm 4 mps 759 mmHg 72%
    15:00 +32°C° 0.2 mm 4 mps 759 mmHg 71%
    16:00 +30°C° 0.4 mm 4 mps 759 mmHg 78%
    17:00 +28°C° 0.4 mm 4 mps 760 mmHg 86%
    18:00 +27°C° 0.4 mm 4 mps 760 mmHg 93%
    19:00 +26°C° 0.5 mm 4 mps 760 mmHg 94%
    20:00 +26°C° 0.5 mm 4 mps 761 mmHg 95%
    21:00 +26°C° 0.5 mm 4 mps 761 mmHg 96%
    22:00 +26°C° 0.7 mm 4 mps 761 mmHg 96%
    23:00 +26°C° 0.7 mm 3 mps 761 mmHg 96%
    Mostrar más